SL-3 R/B (877 NORAD) Tracking and Keplerian Element Data

This shows tracking and keplerian element data for the satellite.

Feedback or suggestion? Click here.




ElementValue
Catalog877
NameSL-3 R/B
Epoch Orbit25515
Epoch Day354.03216711
Epoch Year2025
RAAN204.7571
Inclination65.075
Eccentricity0.0074485
Argument of Perigee317.9481
Mean Anonmoly41.5915
Mean Motion14.61281261
Decay Rate1.21E-06
L11 00877U 64053B 25354.03216711 .00000121 00000+0 47836-4 0 9995
L22 00877 65.0750 204.7571 0074485 317.9481 41.5915 14.61281261255159



Live tracking and technical data element details for SL-3 R/B (NORAD 877). SL-3 R/B can be tracked NOW for your location showing map with azimuth and elevation plus other details from your city location.







IsCatalogInMostPopularTable: catalog: 877, numindb: 390
Update: records affected: 1



GetName: 877 SL-3 R/B

Hit Count: updated at: Thu, 16 Apr 2026 04:21:48 GMT